Regional Weather Roundup
Issued by NWS Charleston, WV

Home | Current Version | Previous Version | Graphics & Text | Print | Product List | Glossary On
Versions: 1 2 3 4 5 6 7 8 9 10 11 12 13 14 15 16 17 18 19 20 21 22 23 24 25 26
000
ASUS41 KRLX 110910
RWRRLX
West Virginia Regional Weather Roundup
National Weather Service Charleston WV
400 AM EST MON DEC 11 2017

Note: "fair" indicates few or no clouds below 12,000 feet with no
significant weather and/or obstructions to visibility.

WVZ003-111000-
Northern Panhandle of West Virginia

CITY           SKY/WX    TMP DP  RH WIND       PRES   REMARKS
WHEELING       CLOUDY    32  19  58 W12G20    30.00R
$$

WVZ009-111000-
Northwest West Virginia

CITY           SKY/WX    TMP DP  RH WIND       PRES   REMARKS
PARKERSBURG    CLOUDY    35  20  54 W8        30.08R
$$

WVZ006-111000-
Western West Virginia

CITY           SKY/WX    TMP DP  RH WIND       PRES   REMARKS
HUNTINGTON     CLEAR     31  18  58 SW5       30.09F
$$

WVZ015-111000-
West Central West Virginia

CITY           SKY/WX    TMP DP  RH WIND       PRES   REMARKS
CHARLESTON     CLOUDY    37  20  50 W12G17    30.08S
$$

WVZ022-031-111000-
North Central West Virginia

CITY           SKY/WX    TMP DP  RH WIND       PRES   REMARKS
CLARKSBURG     CLOUDY    36  18  48 W9        30.03R
MORGANTOWN     CLOUDY    34  18  52 SW6       30.01S
$$

WVZ025-035-042-045-111000-
Southern West Virginia

CITY           SKY/WX    TMP DP  RH WIND       PRES   REMARKS
BECKLEY        NOT AVBL
LOGAN            N/A     36  19  51 VRB7G14   30.07F
BLUEFIELD      CLOUDY    30  18  60 W10       30.03R
LEWISBURG      CLOUDY    32  19  58 W7        30.01S
$$

WVZ047-111000-
Northern Mountains of West Virginia

CITY           SKY/WX    TMP DP  RH WIND       PRES   REMARKS
ELKINS         CLOUDY    33  18  53 W10G20    29.99S
$$

WVZ052-111000-
Eastern Panhandle of West Virginia

CITY           SKY/WX    TMP DP  RH WIND       PRES   REMARKS
MARTINSBURG    CLOUDY    36  21  54 S3        30.00S
PETERSBURG     CLOUDY    38  20  49 W8        29.99S
$$




USA.gov is the U.S. government's official web portal to all federal, state and local government web resources and services.